Regional Weather Roundup
Issued by NWS Midland/Odessa, TX

Skip options and go directly to product.
Home | Oldest Version | Previous Version | Current Version | All | Text Only | Save Text | Print | Product List | Glossary Off

Skip product version selection by date and time.   

807
ASUS44 KMAF 270910
RWRMAF
MIDLAND AREA WEATHER ROUNDUP
NATIONAL WEATHER SERVICE MIDLAND TX
400 AM CDT SAT AUG 27 2016

...IN SOUTHWEST TEXAS AND SOUTHEAST NEW MEXICO...

CITY           SKY/WX    TMP DP  RH WIND       PRES   REMARKS
ALPINE         CLOUDY    67  58  72 S7        30.20F
ANDREWS        NOT AVBL
ARTESIA        PTCLDY    68  68 100 SE10      30.08F
BIG SPRING     CLOUDY    68  66  94 CALM      30.09F
CARLSBAD       CLEAR     66  64  93 SE6       30.07F
DRYDEN           N/A     71  69  93 SE3       30.02F
FORT STOCKTON  CLOUDY    68  63  84 E3        30.06F
GUAD PASS      NOT AVBL
HOBBS          CLOUDY    66  66 100 SE5       30.12F
MARFA          CLOUDY   N/A N/A N/A CALM      30.19S
MIDLAND AIRPK  CLOUDY    73  65  78 CALM      30.09S
MIDLAND INTL   CLOUDY    72  64  76 S3        30.08S
ODESSA         CLOUDY    71  63  75 CALM      30.09S
PECOS          CLOUDY    69  64  83 E7        30.04F
PRESIDIO       NOT AVBL
SEMINOLE       CLOUDY    67  66  94 CALM      30.11F
SNYDER           N/A     70  67  90 S5        30.06F
WINK           CLOUDY    70  64  81 E5        30.05F
$$
...OTHER STATIONS IN TEXAS...

CITY           SKY/WX    TMP DP  RH WIND       PRES   REMARKS
ABILENE        CLOUDY    72  69  90 S9        30.03F
AMARILLO       CLEAR     61  58  90 S9        30.08F
AUSTIN         MOCLDY    72  71  97 CALM      29.98F FOG
BROWNSVILLE    CLEAR     77  76  96 CALM      29.92F
CORPUS CHRISTI PTCLDY    76  74  93 W6        29.93F
DALLAS FTW     MOCLDY    74  70  87 E3        29.99R
DEL RIO        CLOUDY    77  71  82 CALM      29.97F
EL PASO        MOCLDY    72  60  66 N13       30.09S
HOUSTON INT    CLOUDY    76  73  91 N3        29.96R
LUBBOCK        PTCLDY    64  62  93 CALM      30.10F
SAN ANGELO     CLOUDY    72  67  84 S3        30.03S
SAN ANTONIO    CLOUDY    76  72  87 E3        30.00F
WACO           CLOUDY    74  73  97 SW5       29.99S
WICHITA FALLS  NOT AVBL
$$
...OTHER LOCATIONS IN NEW MEXICO...

CITY           SKY/WX    TMP DP  RH WIND       PRES   REMARKS
ALAMAGORDO     CLOUDY    66  63  88 NW5       30.11F
ALBUQUERQUE    PTCLDY    62  49  62 SE6       30.17S
CANNON AFB     CLEAR     63  63 100 S9        30.14S
CLOVIS         CLOUDY    63  57  82 S8        30.14S
HOLLOMAN AFB   NOT AVBL
ROSWELL        CLOUDY    68  62  81 SW3       30.08F
RUIDOSO        NOT AVBL
SANTA FE       CLOUDY    58  50  75 CALM      30.22S
TRUTH OR CONSE CLOUDY    66  54  65 W5        30.14S
TUCUMCARI      CLOUDY    68  62  81 S12       30.09S
$$

USA.gov is the U.S. government's official web portal to all federal, state and local government web resources and services.